Tracking 29892 objects as of 21-Nov-2024
HD Live streaming from Space Station
objects crossing your sky now

STARLINK-2405

Track STARLINK-2405 now!
10-day predictions
STARLINK-2405 is classified as:


NORAD ID: 47919
Int'l Code: 2021-021BM
Perigee: 553.2 km
Apogee: 555.1 km
Inclination: 53.1 °
Period: 95.6 minutes
Semi major axis: 6925 km
RCS: Unknown
Launch date: March 14, 2021
Source: United States (US)
Launch site: AIR FORCE EASTERN TEST RANGE (AFETR)
Your satellite tracking list
Your tracking list is empty




NASA's NSSDC Master Catalog

Two Line Element Set (TLE):
1 47919U 21021BM  24326.16171828  .00027712  00000-0  18694-2 0  9996
2 47919  53.0540 247.3659 0001366  92.1308 267.9838 15.06451516204186
Source of the keplerian elements: AFSPC